DW2891 Weather Reports


Display with metric or nautical units.
time (UTC)temp
F
wind
direction
speed
MPH
gust
MPH
rain 1hr
in
rain 24hr
in
rain mn
in
humidity
%
barometer
mb
20260508233603 62 345 0.0 0.0 0.00 0.00 0.00 62 1019.0
20260508233103 61 306 0.0 0.0 0.00 0.00 0.00 61 1019.0
20260508232603 61 306 0.0 0.0 0.00 0.00 0.00 59 1019.0
20260508232104 61 306 0.0 0.0 0.00 0.00 0.00 61 1018.9
20260508231603 61 306 0.0 1.0 0.00 0.00 0.00 60 1019.0
20260508231103 60 306 0.0 0.0 0.00 0.00 0.00 61 1019.1
20260508230603 60 306 0.0 8.0 0.00 0.00 0.00 58 1019.0
20260508225604 63 40 0.0 5.0 0.00 0.00 0.00 59 1019.0
20260508225103 62 26 0.0 1.0 0.00 0.00 0.00 62 1019.0
20260508224103 61 25 0.0 9.0 0.00 0.00 0.00 61 1018.9
20260508223603 61 61 0.0 1.0 0.00 0.00 0.00 64 1018.8
20260508223103 60 61 0.0 0.0 0.00 0.00 0.00 61 1018.8
20260508222603 60 61 0.0 0.0 0.00 0.00 0.00 64 1018.8
20260508221603 60 61 1.0 5.0 0.00 0.00 0.00 62 1018.9
20260508221103 61 5 0.0 0.0 0.00 0.00 0.00 64 1018.8
20260508220603 61 13 0.0 0.0 0.00 0.00 0.00 68 1018.9
20260508220103 60 13 0.0 0.0 0.00 0.00 0.00 65 1018.8
20260508215603 60 13 0.0 1.0 0.00 0.00 0.00 62 1018.8
20260508215103 61 5 0.0 0.0 0.00 0.00 0.00 62 1018.7
20260508214103 60 40 0.0 0.0 0.00 0.00 0.00 61 1018.6
20260508213603 61 40 0.0 1.0 0.00 0.00 0.00 60 1018.5
20260508213103 61 324 0.0 8.0 0.00 0.00 0.00 62 1018.5
20260508212603 61 52 0.0 5.0 0.00 0.00 0.00 62 1018.5
20260508212103 62 62 0.0 1.0 0.00 0.00 0.00 61 1018.6
20260508211603 62 54 1.0 10.0 0.00 0.00 0.00 60 1018.6
20260508211102 61 87 0.0 0.0 0.00 0.00 0.00 63 1018.4
20260508210603 60 88 1.0 3.0 0.00 0.00 0.00 60 1018.4
20260508205603 60 298 1.0 5.0 0.00 0.00 0.00 60 1018.4
20260508205103 60 298 0.0 0.0 0.00 0.00 0.00 60 1018.4
20260508202604 61 298 0.0 5.0 0.00 0.00 0.00 62 1018.2
20260508201604 61 87 1.0 6.0 0.00 0.00 0.00 65 1017.9
20260508201104 61 87 0.0 8.0 0.00 0.00 0.00 57 1017.9
20260508200104 61 355 0.0 0.0 0.00 0.00 0.00 59 1017.7
20260508195604 61 355 0.0 0.0 0.00 0.00 0.00 62 1017.7
20260508195104 61 12 0.0 0.0 0.00 0.00 0.00 57 1017.5
20260508194604 62 26 0.0 1.0 0.00 0.00 0.00 63 1017.6
20260508194104 61 51 0.0 0.0 0.00 0.00 0.00 62 1017.5
20260508193604 61 32 1.0 3.0 0.00 0.00 0.00 62 1017.4
20260508193104 60 339 3.0 8.0 0.00 0.00 0.00 60 1017.4
20260508192604 62 53 1.0 5.0 0.00 0.00 0.00 59 1017.4
20260508192104 62 78 0.0 1.0 0.00 0.00 0.00 63 1017.3
20260508191604 62 78 1.0 3.0 0.00 0.00 0.00 60 1017.3
20260508190604 61 79 0.0 5.0 0.00 0.00 0.00 63 1017.2
20260508190104 61 59 1.0 5.0 0.00 0.00 0.00 60 1017.3
20260508185604 61 193 1.0 3.0 0.00 0.00 0.00 59 1017.3
20260508185104 61 9 0.0 3.0 0.00 0.00 0.00 61 1017.3
20260508184104 62 77 1.0 5.0 0.00 0.00 0.00 61 1017.4
20260508183604 61 76 0.0 1.0 0.00 0.00 0.00 59 1017.3
20260508183105 60 77 0.0 2.0 0.00 0.00 0.00 60 1017.3
20260508182604 59 312 0.0 1.0 0.00 0.00 0.00 62 1017.1
20260508182104 59 312 5.0 6.0 0.00 0.00 0.00 63 1017.0
20260508181604 60 321 0.0 0.0 0.00 0.00 0.00 62 1017.0
20260508181104 59 321 0.0 0.0 0.00 0.00 0.00 62 1017.1
20260508180604 60 321 0.0 0.0 0.00 0.00 0.00 63 1017.1
20260508180104 60 321 0.0 0.0 0.00 0.00 0.00 62 1017.0
20260508175604 59 320 0.0 1.0 0.00 0.00 0.00 64 1016.9
20260508175104 59 321 0.0 6.0 0.00 0.00 0.00 66 1016.9
20260508174604 60 312 1.0 8.0 0.00 0.00 0.00 69 1016.7
20260508174104 59 304 0.0 0.0 0.00 0.00 0.00 66 1016.7
20260508173604 59 304 0.0 0.0 0.00 0.00 0.00 73 1016.7
20260508173104 58 304 0.0 0.0 0.00 0.00 0.00 70 1016.6
20260508172604 59 304 0.0 1.0 0.00 0.00 0.00 71 1016.7
20260508172104 60 304 0.0 0.0 0.00 0.00 0.00 69 1016.7
20260508171604 59 304 0.0 0.0 0.00 0.00 0.00 67 1016.5
20260508170103 59 309 6.0 10.0 0.00 0.00 0.00 66 1016.5
20260508165604 59 298 0.0 0.0 0.00 0.00 0.00 69 1016.5
20260508165104 59 298 0.0 0.0 0.00 0.00 0.00 71 1016.5
20260508164605 58 298 0.0 0.0 0.00 0.00 0.00 72 1016.5
20260508164104 57 298 0.0 0.0 0.00 0.00 0.00 74 1016.4
20260508163604 57 298 0.0 0.0 0.00 0.00 0.00 72 1016.3
20260508163104 57 298 2.0 6.0 0.00 0.00 0.00 73 1016.3
20260508162605 57 7 0.0 1.0 0.00 0.00 0.00 74 1016.2
20260508162104 57 9 0.0 0.0 0.00 0.00 0.00 73 1016.2
20260508160103 56 82 0.0 0.0 0.00 0.00 0.00 75 1016.0
20260508155604 55 82 0.0 0.0 0.00 0.00 0.00 77 1015.9
20260508154605 55 82 0.0 0.0 0.00 0.00 0.00 76 1015.8
20260508154104 55 82 0.0 0.0 0.00 0.00 0.00 80 1015.7
20260508153604 55 82 0.0 0.0 0.00 0.00 0.00 83 1015.8
20260508152605 54 82 0.0 0.0 0.00 0.00 0.00 87 1015.7
20260508152104 54 82 0.0 0.0 0.00 0.00 0.00 88 1015.5
20260508151604 54 82 0.0 0.0 0.00 0.00 0.00 88 1015.7
20260508151104 53 82 0.0 0.0 0.00 0.00 0.00 88 1015.6
20260508150605 53 82 0.0 0.0 0.00 0.00 0.00 89 1015.5
20260508150104 53 82 0.0 0.0 0.00 0.00 0.00 89 1015.6
20260508145104 52 82 0.0 0.0 0.00 0.00 0.00 89 1015.5
20260508144603 52 82 0.0 0.0 0.00 0.00 0.00 90 1015.5
20260508143604 51 82 0.0 0.0 0.00 0.00 0.00 90 1015.3
20260508143104 51 82 0.0 0.0 0.00 0.00 0.00 90 1015.2
20260508142604 51 82 0.0 0.0 0.00 0.00 0.00 90 1015.2
20260508142104 50 82 0.0 0.0 0.00 0.00 0.00 90 1015.2
20260508141603 50 82 0.0 0.0 0.00 0.00 0.00 90 1015.2
20260508135103 49 82 0.0 0.0 0.00 0.00 0.00 91 1015.0
20260508134604 49 82 0.0 0.0 0.00 0.00 0.00 91 1015.0
20260508134104 49 82 0.0 0.0 0.00 0.00 0.00 91 1014.9
20260508133604 49 82 0.0 0.0 0.00 0.00 0.00 92 1015.0
20260508133104 49 82 0.0 0.0 0.00 0.00 0.00 92 1015.0
20260508132104 50 82 0.0 0.0 0.00 0.00 0.00 92 1015.0
20260508131604 50 82 0.0 0.0 0.00 0.00 0.00 92 1014.9
20260508131104 50 82 0.0 0.0 0.00 0.00 0.00 92 1014.8
20260508130604 50 82 0.0 0.0 0.00 0.00 0.00 92 1014.7
20260508130104 50 82 0.0 0.0 0.00 0.00 0.00 92 1014.7
20260508125605 50 82 0.0 0.0 0.00 0.00 0.00 92 1014.7
20260508125103 50 82 0.0 0.0 0.00 0.00 0.00 92 1014.7
20260508124104 50 74 0.0 0.0 0.00 0.00 0.00 91 1014.7
20260508123604 50 34 0.0 0.0 0.00 0.00 0.00 91 1014.7
20260508123104 51 61 0.0 0.0 0.00 0.00 0.00 91 1014.8
20260508121605 51 94 0.0 0.0 0.00 0.00 0.00 91 1014.8
20260508121103 51 94 0.0 0.0 0.00 0.00 0.00 91 1014.8
20260508120104 51 94 0.0 0.0 0.00 0.00 0.00 90 1014.6
20260508115605 51 94 0.0 0.0 0.00 0.00 0.00 90 1014.7
20260508115104 51 94 0.0 0.0 0.00 0.00 0.00 90 1014.7
20260508114604 51 94 0.0 0.0 0.00 0.00 0.00 90 1014.8
20260508114103 51 94 0.0 0.0 0.00 0.00 0.00 90 1014.7
20260508113604 52 94 0.0 0.0 0.00 0.00 0.00 90 1014.8
20260508113104 52 94 0.0 0.0 0.00 0.00 0.00 89 1014.5
20260508112104 52 94 0.0 0.0 0.00 0.00 0.00 89 1014.3
20260508111605 52 94 0.0 0.0 0.00 0.00 0.00 89 1014.3
20260508111104 52 94 0.0 0.0 0.00 0.00 0.00 89 1014.3
20260508110604 52 94 0.0 0.0 0.00 0.00 0.00 89 1014.4
20260508110104 52 94 0.0 0.0 0.00 0.00 0.00 89 1014.5
20260508105104 52 94 0.0 0.0 0.00 0.00 0.00 89 1014.4
20260508104604 52 94 0.0 0.0 0.00 0.00 0.00 88 1014.4
20260508104105 52 94 0.0 0.0 0.00 0.00 0.00 88 1014.4
20260508103603 53 94 0.0 0.0 0.00 0.00 0.00 88 1014.4
20260508103104 53 94 0.0 0.0 0.00 0.00 0.00 88 1014.3
20260508102604 53 94 0.0 0.0 0.00 0.00 0.00 88 1014.4
20260508102105 53 94 0.0 0.0 0.00 0.00 0.00 88 1014.5
20260508101604 53 94 0.0 0.0 0.00 0.00 0.00 88 1014.5
20260508101104 53 94 0.0 0.0 0.00 0.00 0.00 88 1014.5
20260508100604 53 94 0.0 0.0 0.00 0.00 0.00 88 1014.6
20260508100104 53 94 0.0 0.0 0.00 0.00 0.00 88 1014.6
20260508095603 53 94 0.0 0.0 0.00 0.00 0.00 88 1014.6
20260508095103 53 94 0.0 0.0 0.00 0.00 0.00 88 1014.5
20260508094604 53 94 0.0 0.0 0.00 0.00 0.00 88 1014.6
20260508094105 53 94 0.0 0.0 0.00 0.00 0.00 87 1014.6
20260508093604 53 94 0.0 0.0 0.00 0.00 0.00 87 1014.6
20260508093103 53 94 0.0 0.0 0.00 0.00 0.00 87 1014.6
20260508092604 53 94 0.0 0.0 0.00 0.00 0.00 87 1014.6
20260508092105 53 94 0.0 0.0 0.00 0.00 0.00 87 1014.7
20260508091604 53 94 0.0 0.0 0.00 0.00 0.00 87 1014.7
20260508091104 53 94 0.0 0.0 0.00 0.00 0.00 86 1014.7
20260508090104 53 94 0.0 0.0 0.00 0.00 0.00 86 1014.7
20260508085604 53 94 0.0 0.0 0.00 0.00 0.00 86 1014.7
20260508085103 54 94 0.0 0.0 0.00 0.00 0.00 85 1014.7
20260508084603 54 94 0.0 0.0 0.00 0.00 0.00 85 1014.6
20260508084104 54 94 0.0 0.0 0.00 0.00 0.00 85 1014.7
20260508083604 54 94 0.0 0.0 0.00 0.00 0.00 85 1014.5
20260508082604 54 94 0.0 0.0 0.00 0.00 0.00 85 1014.7
20260508082105 54 94 0.0 0.0 0.00 0.00 0.00 85 1014.6
20260508081603 54 94 0.0 0.0 0.00 0.00 0.00 85 1014.6
20260508081104 54 94 0.0 0.0 0.00 0.00 0.00 85 1014.6
20260508080604 54 94 0.0 0.0 0.00 0.00 0.00 84 1014.7
20260508075604 54 94 0.0 0.0 0.00 0.00 0.00 84 1014.7
20260508075104 54 94 0.0 0.0 0.00 0.00 0.00 84 1014.8
20260508074604 54 94 0.0 0.0 0.00 0.00 0.00 84 1014.7
20260508074104 55 94 0.0 0.0 0.00 0.00 0.00 84 1014.8
20260508073103 55 94 0.0 0.0 0.00 0.00 0.00 84 1014.8
20260508072603 54 94 0.0 0.0 0.00 0.00 0.00 84 1014.7
20260508071104 54 94 0.0 0.0 0.00 0.00 0.00 84 1014.8
20260508070604 54 94 0.0 0.0 0.00 0.00 0.00 84 1014.9
20260508070104 54 94 0.0 0.0 0.00 0.00 0.00 84 1014.9
20260508065104 54 94 0.0 0.0 0.00 0.00 0.00 83 1014.9
20260508064604 54 94 0.0 0.0 0.00 0.00 0.00 84 1015.0
20260508064104 54 94 0.0 0.0 0.00 0.00 0.00 83 1014.9
20260508063604 54 94 0.0 0.0 0.00 0.00 0.00 83 1014.9
20260508062603 54 94 0.0 0.0 0.00 0.00 0.00 83 1014.9
20260508062104 54 94 0.0 0.0 0.00 0.00 0.00 84 1014.9
20260508061604 54 94 0.0 0.0 0.00 0.00 0.00 84 1014.8
20260508061104 54 94 0.0 0.0 0.00 0.00 0.00 84 1014.8
20260508060604 53 94 0.0 0.0 0.00 0.00 0.00 83 1014.8
20260508060104 53 94 0.0 0.0 0.00 0.00 0.00 83 1014.9
20260508053603 53 94 0.0 0.0 0.00 0.00 0.00 82 1015.0
20260508053104 53 94 0.0 0.0 0.00 0.00 0.00 82 1015.0
20260508052604 53 94 0.0 0.0 0.00 0.00 0.00 82 1015.0
20260508052104 53 94 0.0 0.0 0.00 0.00 0.00 81 1014.9
20260508051604 53 94 0.0 0.0 0.00 0.00 0.00 81 1014.9
20260508051104 53 94 0.0 0.0 0.00 0.00 0.00 81 1015.0
20260508050603 53 94 0.0 0.0 0.00 0.00 0.00 81 1015.1
20260508050103 53 94 0.0 0.0 0.00 0.00 0.00 80 1015.2
20260508045604 53 94 0.0 0.0 0.00 0.00 0.00 79 1015.1
20260508045103 53 94 0.0 0.0 0.00 0.00 0.00 79 1015.0
20260508044603 54 94 0.0 0.0 0.00 0.00 0.00 79 1015.0
20260508043603 54 94 0.0 0.0 0.00 0.00 0.00 78 1015.0
20260508043104 54 94 0.0 0.0 0.00 0.00 0.00 78 1014.8
20260508042604 54 94 0.0 0.0 0.00 0.00 0.00 77 1014.9
20260508042104 55 94 0.0 0.0 0.00 0.00 0.00 78 1014.9
20260508041604 55 94 0.0 0.0 0.00 0.00 0.00 77 1015.0
20260508041104 55 94 0.0 0.0 0.00 0.00 0.00 77 1014.9
20260508035105 56 94 0.0 0.0 0.00 0.00 0.00 76 1014.9
20260508034605 56 94 0.0 0.0 0.00 0.00 0.00 76 1014.9
20260508034105 57 94 0.0 0.0 0.00 0.00 0.00 77 1014.9
20260508033605 57 94 0.0 0.0 0.00 0.00 0.00 77 1014.9
20260508033105 57 94 0.0 0.0 0.00 0.00 0.00 76 1014.8
20260508032605 58 94 0.0 0.0 0.00 0.00 0.00 76 1014.9
20260508032105 58 94 0.0 0.0 0.00 0.00 0.00 75 1015.0
20260508031605 58 94 0.0 0.0 0.00 0.00 0.00 75 1014.8
20260508031106 58 94 0.0 0.0 0.00 0.00 0.00 75 1015.0
20260508030605 58 94 0.0 0.0 0.00 0.00 0.00 74 1015.0
20260508030105 59 94 0.0 0.0 0.00 0.00 0.00 74 1014.9
20260508025605 59 94 0.0 0.0 0.00 0.00 0.00 74 1015.1
20260508025105 59 94 0.0 0.0 0.00 0.00 0.00 73 1015.1
20260508024605 60 94 0.0 0.0 0.00 0.00 0.00 72 1015.0
20260508024106 60 94 0.0 0.0 0.00 0.00 0.00 73 1015.0
20260508023605 61 94 0.0 0.0 0.00 0.00 0.00 73 1015.1
20260508023105 61 94 0.0 0.0 0.00 0.00 0.00 73 1015.2
20260508022605 61 94 0.0 0.0 0.00 0.00 0.00 72 1015.2
20260508021606 62 94 0.0 0.0 0.00 0.00 0.00 70 1015.2
20260508021105 62 94 0.0 0.0 0.00 0.00 0.00 70 1015.2
20260508020605 62 94 0.0 0.0 0.00 0.00 0.00 69 1015.2
20260508020105 62 94 0.0 0.0 0.00 0.00 0.00 69 1015.2
20260508015606 62 94 0.0 0.0 0.00 0.00 0.00 67 1015.3
20260508015104 62 94 0.0 0.0 0.00 0.00 0.00 67 1015.5
20260508014605 62 94 0.0 0.0 0.00 0.00 0.00 67 1015.6
20260508014105 62 94 0.0 0.0 0.00 0.00 0.00 67 1015.7
20260508013605 62 94 0.0 0.0 0.00 0.00 0.00 67 1015.8
20260508013105 62 94 0.0 0.0 0.00 0.00 0.00 68 1015.8
20260508012105 63 94 0.0 0.0 0.00 0.00 0.00 67 1015.8
20260508011605 63 94 0.0 0.0 0.00 0.00 0.00 67 1015.8
20260508011105 63 94 0.0 0.0 0.00 0.00 0.00 66 1015.8
20260508010604 64 94 0.0 0.0 0.00 0.00 0.00 64 1015.9
20260508010105 64 94 0.0 0.0 0.00 0.00 0.00 62 1016.0
20260508005605 64 94 0.0 0.0 0.00 0.00 0.00 61 1016.0
20260508005105 64 94 0.0 0.0 0.00 0.00 0.00 62 1016.1
20260508004605 64 95 0.0 0.0 0.00 0.00 0.00 58 1016.1
20260508004105 64 142 0.0 1.0 0.00 0.00 0.00 57 1016.1
20260508003605 64 172 0.0 0.0 0.00 0.00 0.00 57 1016.1
20260508003105 64 172 0.0 0.0 0.00 0.00 0.00 57 1016.1
20260508002606 64 172 0.0 0.0 0.00 0.00 0.00 56 1016.1
20260508002104 65 172 0.0 0.0 0.00 0.00 0.00 58 1016.2
20260508001604 65 172 0.0 0.0 0.00 0.00 0.00 58 1016.2
20260508001105 65 172 0.0 1.0 0.00 0.00 0.00 57 1016.3
20260508000605 65 161 0.0 0.0 0.00 0.00 0.00 62 1016.2
20260508000105 65 186 0.0 1.0 0.00 0.00 0.00 61 1016.3
20260507235605 64 188 0.0 0.0 0.00 0.00 0.00 61 1016.4
20260507235105 64 188 0.0 0.0 0.00 0.00 0.00 64 1016.3
20260507234605 64 190 0.0 0.0 0.00 0.00 0.00 62 1016.3
20260507234105 64 196 0.0 0.0 0.00 0.00 0.00 63 1016.3